Weather in Verkhnebeshkil

Russia / Tyumen Oblast     56°31′11″N   65°31′25″E
temp.,
°C
wind,
m/s
gust,
m/s
humid.,
%
clouds,
%
prec.,
mm/h
press.,
hPa
HPBL,
m
25 february, thu
thu2523:00−21nne71394100 0.8 1015808
02:00−23n71291100 0.1 1017592
05:00−25n61192100 0.2 1019501
08:00−28nnw5119497 0.0 1021269
11:00−26nnw599380 0.0 1024328
14:00−22nw579273 0.0 1024410
17:00−22nw359486 0.0 1026126
20:00−26nw339786 0.0 102724
26 february, fri
fri2623:00−26wnw239885 0.0 102828
02:00−27w239985 0.0 102819
05:00−28wsw229955 0.0 102919
08:00−29wsw22990 0.0 103019
11:00−23ssw129427 0.0 1030152
14:00−19s128986 0.0 1029351
17:00−19sse119693 0.1 102925
20:00−24s349893 0.0 102954
27 february, sat
sat2723:00−27s349447 0.0 102933
02:00−29s34975 0.0 102848
05:00−31sse349731 0.0 102865
08:00−32sse359711 0.0 102782
11:00−26se47945 0.0 1026276
14:00−21se589234 0.0 1024368
17:00−21ese6119251 0.0 1022355
20:00−21se61195100 0.1 1020410
28 february, sun
sun2823:00−19ese61096100 0.4 1017408
02:00−17ese61196100 0.6 1014409
05:00−15ese61195100 1.1 1013415
08:00−13e61095100 0.4 1011408
11:00−10e6994100 0.9 1010511
14:00−8e5894100 0.6 1010535
17:00−8e5895100 1.3 1009530
20:00−11ne5995100 0.6 1009289
1 march, mon
mon123:00−12ne4895100 1.1 1010268
02:00−14nne479599 0.2 1011191
05:00−15nne369598 0.3 1012221
08:00−17n359696 0.1 1013140
11:00−16n349497 0.1 1014240
14:00−13nnw2388100 0.0 1014344
17:00−14nw1193100 0.0 101421
20:00−17wsw119899 0.0 101320